| time (UTC) | temp C | wind direction | speed KPH | gust KPH | rain 1hr cm | rain 24hr cm | rain mn cm | humidity % | barometer mb |
| 20260506113051 | 19 | 276 | 0.0 | 4.8 | 0.00 | 0.00 | 0.00 | 90 | 1016.1 |
| 20260506111555 | 17 | 267 | 0.0 | 0.0 | 0.00 | 0.00 | 0.00 | 94 | 1015.8 |
| 20260506110105 | 17 | 321 | 0.0 | 0.0 | 0.00 | 0.00 | 0.00 | 94 | 1015.7 |
| 20260506104504 | 17 | 299 | 0.0 | 0.0 | 0.00 | 0.00 | 0.00 | 94 | 1015.7 |
| 20260506103013 | 17 | 290 | 0.0 | 0.0 | 0.00 | 0.00 | 0.00 | 93 | 1015.5 |
| 20260506101513 | 17 | 285 | 0.0 | 0.0 | 0.00 | 0.00 | 0.00 | 93 | 1015.5 |
| 20260506100021 | 18 | 281 | 0.0 | 0.0 | 0.00 | 0.00 | 0.00 | 92 | 1015.6 |
| 20260506094546 | 18 | 295 | 0.0 | 0.0 | 0.00 | 0.00 | 0.00 | 92 | 1015.6 |
| 20260506093046 | 18 | 302 | 0.0 | 0.0 | 0.00 | 0.00 | 0.00 | 93 | 1015.7 |
| 20260506091548 | 18 | 273 | 0.0 | 0.0 | 0.00 | 0.00 | 0.00 | 93 | 1015.5 |
| 20260506090053 | 18 | 240 | 0.0 | 0.0 | 0.00 | 0.00 | 0.00 | 93 | 1015.3 |
| 20260506084559 | 18 | 227 | 0.0 | 0.0 | 0.00 | 0.00 | 0.00 | 93 | 1015.2 |
| 20260506083010 | 19 | 101 | 0.0 | 0.0 | 0.00 | 0.00 | 0.00 | 92 | 1015.3 |
| 20260506081523 | 19 | 82 | 0.0 | 0.0 | 0.00 | 0.00 | 0.00 | 92 | 1015.2 |
| 20260506073048 | 19 | 165 | 0.0 | 0.0 | 0.00 | 0.00 | 0.00 | 90 | 1015.3 |
| 20260506071606 | 19 | 198 | 0.0 | 0.0 | 0.00 | 0.00 | 0.00 | 91 | 1015.3 |
| 20260506061503 | 18 | 143 | 0.0 | 0.0 | 0.00 | 0.00 | 0.00 | 93 | 1015.6 |
| 20260506044526 | 18 | 117 | 0.0 | 0.0 | 0.00 | 0.00 | 0.00 | 90 | 1016.6 |
| 20260506043029 | 19 | 117 | 0.0 | 0.0 | 0.00 | 0.00 | 0.00 | 89 | 1016.5 |
| 20260506041556 | 19 | 120 | 0.0 | 0.0 | 0.00 | 0.00 | 0.00 | 89 | 1016.4 |
| 20260506040047 | 19 | 131 | 0.0 | 0.0 | 0.00 | 0.00 | 0.00 | 88 | 1016.6 |
| 20260506034555 | 20 | 120 | 0.0 | 0.0 | 0.00 | 0.00 | 0.00 | 88 | 1016.7 |
| 20260506033112 | 20 | 125 | 0.0 | 0.0 | 0.00 | 0.00 | 0.00 | 87 | 1016.8 |
| 20260506031516 | 20 | 133 | 0.0 | 0.0 | 0.00 | 0.00 | 0.00 | 86 | 1017.0 |
| 20260506030013 | 20 | 110 | 0.0 | 3.2 | 0.00 | 0.00 | 0.00 | 86 | 1017.0 |
| 20260506024515 | 20 | 132 | 0.0 | 3.2 | 0.00 | 0.00 | 0.00 | 86 | 1016.9 |
| 20260506023022 | 20 | 149 | 0.0 | 3.2 | 0.00 | 0.00 | 0.00 | 85 | 1017.0 |
| 20260506021528 | 20 | 130 | 1.6 | 3.2 | 0.00 | 0.00 | 0.00 | 85 | 1016.8 |
| 20260506020032 | 20 | 127 | 0.0 | 3.2 | 0.00 | 0.00 | 0.00 | 85 | 1016.7 |
| 20260506014547 | 20 | 126 | 0.0 | 9.7 | 0.00 | 0.00 | 0.00 | 84 | 1016.8 |
| 20260506013045 | 20 | 121 | 0.0 | 4.8 | 0.00 | 0.00 | 0.00 | 83 | 1016.7 |
| 20260506011542 | 20 | 110 | 1.6 | 6.4 | 0.00 | 0.00 | 0.00 | 82 | 1016.6 |
| 20260506010044 | 20 | 152 | 0.0 | 6.4 | 0.00 | 0.00 | 0.00 | 82 | 1016.6 |
| 20260506004548 | 20 | 141 | 0.0 | 8.0 | 0.00 | 0.00 | 0.00 | 81 | 1016.6 |
| 20260506003050 | 20 | 150 | 1.6 | 6.4 | 0.00 | 0.00 | 0.00 | 81 | 1016.6 |
| 20260506001609 | 20 | 130 | 1.6 | 9.7 | 0.00 | 0.00 | 0.00 | 80 | 1016.7 |
| 20260506000055 | 21 | 140 | 3.2 | 6.4 | 0.00 | 0.00 | 0.00 | 80 | 1016.6 |
| 20260505234559 | 21 | 127 | 1.6 | 12.9 | 0.00 | 0.00 | 0.00 | 80 | 1016.5 |
| 20260505233001 | 21 | 136 | 1.6 | 12.9 | 0.00 | 0.00 | 0.00 | 78 | 1016.5 |
| 20260505231508 | 21 | 132 | 1.6 | 9.7 | 0.00 | 0.00 | 0.00 | 78 | 1016.4 |
| 20260505230015 | 22 | 113 | 3.2 | 6.4 | 0.00 | 0.00 | 0.00 | 77 | 1016.5 |
| 20260505224535 | 22 | 136 | 1.6 | 8.0 | 0.00 | 0.00 | 0.00 | 77 | 1016.5 |
| 20260505223040 | 22 | 130 | 3.2 | 9.7 | 0.00 | 0.00 | 0.00 | 75 | 1016.7 |
| 20260505221550 | 22 | 131 | 4.8 | 8.0 | 0.00 | 0.00 | 0.00 | 74 | 1016.7 |
| 20260505220050 | 22 | 103 | 3.2 | 8.0 | 0.00 | 0.00 | 0.00 | 75 | 1016.8 |
| 20260505214601 | 22 | 143 | 3.2 | 9.7 | 0.00 | 0.00 | 0.00 | 74 | 1016.7 |
| 20260505213100 | 22 | 137 | 4.8 | 9.7 | 0.00 | 0.00 | 0.00 | 73 | 1016.6 |
| 20260505211506 | 23 | 117 | 4.8 | 9.7 | 0.00 | 0.00 | 0.00 | 72 | 1016.8 |
| 20260505210009 | 23 | 128 | 4.8 | 11.3 | 0.00 | 0.00 | 0.00 | 71 | 1016.8 |
| 20260505204523 | 23 | 145 | 4.8 | 11.3 | 0.00 | 0.00 | 0.00 | 71 | 1016.9 |
| 20260505203021 | 23 | 121 | 3.2 | 12.9 | 0.00 | 0.00 | 0.00 | 71 | 1017.0 |
| 20260505201541 | 23 | 126 | 4.8 | 11.3 | 0.00 | 0.00 | 0.00 | 70 | 1016.9 |
| 20260505200029 | 23 | 103 | 3.2 | 12.9 | 0.00 | 0.00 | 0.00 | 71 | 1017.1 |
| 20260505194534 | 23 | 215 | 4.8 | 11.3 | 0.00 | 0.00 | 0.00 | 70 | 1017.3 |
| 20260505193046 | 23 | 125 | 3.2 | 12.9 | 0.00 | 0.00 | 0.00 | 69 | 1017.4 |
| 20260505191555 | 23 | 128 | 1.6 | 9.7 | 0.00 | 0.00 | 0.00 | 71 | 1017.5 |
| 20260505190104 | 23 | 139 | 3.2 | 11.3 | 0.00 | 0.00 | 0.00 | 69 | 1017.8 |
| 20260505184605 | 23 | 103 | 4.8 | 11.3 | 0.00 | 0.00 | 0.00 | 69 | 1017.8 |
| 20260505183059 | 23 | 150 | 4.8 | 9.7 | 0.00 | 0.00 | 0.00 | 68 | 1017.7 |
| 20260505181502 | 23 | 101 | 3.2 | 9.7 | 0.00 | 0.00 | 0.00 | 69 | 1017.8 |
| 20260505180004 | 23 | 87 | 1.6 | 11.3 | 0.00 | 0.00 | 0.00 | 69 | 1017.9 |
| 20260505174527 | 23 | 97 | 4.8 | 12.9 | 0.00 | 0.00 | 0.00 | 69 | 1018.0 |
| 20260505173038 | 24 | 120 | 3.2 | 9.7 | 0.00 | 0.00 | 0.00 | 67 | 1018.2 |
| 20260505171541 | 24 | 139 | 3.2 | 9.7 | 0.00 | 0.00 | 0.00 | 69 | 1018.4 |
| 20260505170043 | 24 | 117 | 4.8 | 9.7 | 0.00 | 0.00 | 0.00 | 69 | 1018.4 |
| 20260505164545 | 23 | 154 | 3.2 | 11.3 | 0.00 | 0.00 | 0.00 | 69 | 1018.6 |
| 20260505163041 | 23 | 136 | 4.8 | 11.3 | 0.00 | 0.00 | 0.00 | 69 | 1018.6 |
| 20260505161539 | 23 | 120 | 4.8 | 12.9 | 0.00 | 0.00 | 0.00 | 68 | 1018.7 |
| 20260505153103 | 23 | 149 | 3.2 | 8.0 | 0.00 | 0.00 | 0.00 | 72 | 1018.8 |
| 20260505151552 | 23 | 127 | 3.2 | 9.7 | 0.00 | 0.00 | 0.00 | 72 | 1018.7 |
| 20260505150113 | 23 | 141 | 3.2 | 8.0 | 0.00 | 0.00 | 0.00 | 71 | 1018.7 |
| 20260505124553 | 21 | 138 | 0.0 | 3.2 | 0.00 | 0.00 | 0.00 | 77 | 1018.2 |
| 20260505121601 | 21 | 94 | 0.0 | 1.6 | 0.00 | 0.00 | 0.00 | 79 | 1018.1 |
| 20260505120000 | 19 | 224 | 0.0 | 0.0 | 0.00 | 0.00 | 0.00 | 92 | 1018.0 |
| 20260505114503 | 16 | 225 | 0.0 | 0.0 | 0.00 | 0.00 | 0.00 | 95 | 1017.8 |